Regional Weather Roundup
Issued by NWS Sioux Falls, SD

Home | Current Version | Previous Version | Graphics & Text | Print | Product List | Glossary Off
Versions: 1 2 3 4 5 6 7 8 9 10 11 12 13 14 15 16 17 18 19 20 21 22 23 24 25 26 27 28 29 30 31 32 33 34 35 36 37 38 39 40 41 42 43 44 45 46 47 48 49 50

822
ASUS43 KFSD 281002
RWRFSD

WEATHER ROUNDUP FOR SE SOUTH DAKOTA/SW MINNESOTA/NW IOWA
NATIONAL WEATHER SERVICE SIOUX FALLS SD
500 AM CDT SAT MAY 28 2016

NOTE: "FAIR" INDICATES FEW OR NO CLOUDS BELOW 12,000 FEET WITH NO
SIGNIFICANT WEATHER AND OR OBSTRUCTIONS TO VISIBILITY.


SDZ038>040-050-052>070-281100-
SOUTHEAST SOUTH DAKOTA

CITY           SKY/WX    TMP DP  RH WIND       PRES   REMARKS
BROOKINGS      CLOUDY    60  59  96 NE9       29.74S FOG
CHAMBERLAIN    NOT AVBL
HURON          CLOUDY    59  57  93 N7        29.75S
MADISON        PTSUNNY   59  59 100 NE9       29.74S
MITCHELL       RAIN      60  58  92 NW6       29.76R FOG
SIOUX FALLS    RAIN      62  60  93 E5        29.73R FOG
WINNER         FAIR      57  54  89 NW5       29.78F
YANKTON        CLOUDY    59  55  88 NW9       29.72R
$$

MNZ071-072-080-081-089-090-097-098-281100-
SOUTHWEST MINNESOTA

CITY           SKY/WX    TMP DP  RH WIND       PRES   REMARKS
FAIRMONT       CLOUDY    64  61  88 CALM      29.73S
JACKSON        RAIN      64  61  88 CALM      29.74S
LUVERNE        RAIN      61  59  94 N5        29.75R
MARSHALL       CLOUDY    61  58  90 E9        29.76R
MONTEVIDEO     CLOUDY    61  59  94 E6        29.77F
PIPESTONE      CLOUDY    63  61  94 E7        29.74S FOG
REDWOOD FALLS  MOCLDY    60  57  89 E5        29.75R
TRACY          LGT RAIN  61  60  97 NE5       29.76R
WINDOM         HVY RAIN  63  61  94 CALM      29.74S
WORTHINGTON    LGT RAIN  62  61  96 SW9       29.74R
$$

IAZ001>003-012>014-020>022-031-032-NEZ013-014-SDZ071-281100-
NORTHWEST IOWA

CITY           SKY/WX    TMP DP  RH WIND       PRES   REMARKS
ESTHERVILLE    CLOUDY    64  63  96 CALM      29.73S
SIOUX CITY     CLOUDY    64  61  90 E6        29.69R
SPENCER        LGT RAIN  64  62  93 N6        29.73S
STORM LAKE     CLOUDY    64  63  94 SE7       29.73S
$$

ABBREVIATIONS USED IN REMARKS
   TC - TEMPERATURE IN CELSIUS
  WCI - WIND CHILL INDEX
   HX - HEAT INDEX
  VSB - VISIBILITY





USA.gov is the U.S. government's official web portal to all federal, state and local government web resources and services.